Westerly, RI

5:35 AM EST on February 12, 2016 (GMT -0500)
Westerly State

Weather History for KWST - February, 2013

Change the Weather History Date:

Wednesday, February 20, 2013

  Actual Average (KGON) Record (KGON)
Temperature  
Mean Temperature 32 °F -  
Max Temperature 39 °F 42 °F 55 °F (1984)
Min Temperature 25 °F 24 °F 1 °F (1958)
Degree Days  
Heating Degree Days 32    
Moisture  
Dew Point 19 °F    
Average Humidity 59    
Maximum Humidity 100    
Minimum Humidity 37    
Precipitation  
Precipitation 0.00 in - - ()
Sea Level Pressure  
Sea Level Pressure 29.72 in    
Wind  
Wind Speed 8 mph (West)    
Max Wind Speed 14 mph    
Max Gust Speed 26 mph    
Visibility 10 miles    
Events      
Averages and records for this station are not official NWS values.
T = Trace of Precipitation, MM = Missing Value Source: NWS Daily Summary

Daily Weather History Graph

Daily Weather History Graph

Search for Another Location

Airport or City:

Trip Planner

Search our weather history database for the weather conditions in past years. The results will help you decide how hot, cold, wet, or windy it might be!

Date:

Astronomy

Feb. 20, 2013 Rise Set
Actual Time 6:34 AM EST 5:27 PM EST
Civil Twilight 6:06 AM EST 5:55 PM EST
Nautical Twilight 5:34 AM EST 6:27 PM EST
Astronomical Twilight 5:02 AM EST 6:59 PM EST
Moon 12:44 PM EST (2/20) 2:54 AM EST (2/20)
Length of Visible Light 11h 48m
Length of Day
10h 52m
Waxing Gibbous, 76% of the Moon is Illuminated
Feb 20
Waxing Gibbous
Feb 25
Full
Mar 4
Last Quarter
Mar 11
New
Mar 19
First Quarter

Hourly Weather History & Observations

Time (EST) Temp. Windchill Dew Point Humidity Pressure Visibility Wind Dir Wind Speed Gust Speed Precip Events Conditions
12:24 AM 39.2 °F 34.2 °F 39.2 °F 100% 29.61 in 7.0 mi WSW 6.9 mph - N/A   Overcast
12:53 AM 39.0 °F 34.0 °F 39.0 °F 100% 29.62 in 7.0 mi WSW 6.9 mph - N/A   Mostly Cloudy
1:53 AM 37.9 °F 30.5 °F 36.0 °F 93% 29.63 in 10.0 mi WSW 11.5 mph - N/A   Mostly Cloudy
2:07 AM 37.4 °F 30.8 °F 35.6 °F 93% 29.63 in 10.0 mi WSW 9.2 mph 18.4 mph N/A   Mostly Cloudy
2:39 AM 37.4 °F 31.4 °F 33.8 °F 87% 29.62 in 10.0 mi WSW 8.1 mph 16.1 mph N/A   Scattered Clouds
2:53 AM 37.0 °F 31.0 °F 33.1 °F 86% 29.63 in 10.0 mi West 8.1 mph - N/A   Clear
3:15 AM 35.6 °F 29.9 °F 30.2 °F 81% 29.62 in 10.0 mi West 6.9 mph - N/A   Mostly Cloudy
3:53 AM 36.0 °F 30.3 °F 28.9 °F 76% 29.63 in 10.0 mi West 6.9 mph - N/A   Overcast
4:28 AM 35.6 °F 31.7 °F 28.4 °F 75% 29.64 in 10.0 mi WNW 4.6 mph - N/A   Overcast
4:53 AM 35.1 °F 27.4 °F 27.0 °F 72% 29.65 in 10.0 mi WNW 10.4 mph 18.4 mph N/A   Overcast
5:53 AM 35.1 °F 30.1 °F 26.1 °F 70% 29.67 in 10.0 mi WNW 5.8 mph - N/A   Overcast
8:53 AM 33.1 °F 24.4 °F 15.1 °F 48% 29.74 in 10.0 mi WNW 11.5 mph 19.6 mph N/A   Partly Cloudy
9:53 AM 34.0 °F 25.0 °F 14.0 °F 44% 29.74 in 10.0 mi WNW 12.7 mph 20.7 mph N/A   Partly Cloudy
10:53 AM 35.1 °F 26.9 °F 10.9 °F 37% 29.74 in 10.0 mi WNW 11.5 mph 23.0 mph N/A   Clear
11:53 AM 34.0 °F 26.6 °F 10.9 °F 38% 29.73 in 10.0 mi WNW 9.2 mph 18.4 mph N/A   Scattered Clouds
12:53 PM 35.1 °F 26.4 °F 10.9 °F 37% 29.71 in 10.0 mi West 12.7 mph 21.9 mph N/A   Scattered Clouds
1:53 PM 34.0 °F 26.6 °F 10.0 °F 37% 29.71 in 10.0 mi West 9.2 mph 20.7 mph N/A   Mostly Cloudy
2:53 PM 34.0 °F 24.6 °F 10.9 °F 38% 29.73 in 10.0 mi WNW 13.8 mph 21.9 mph N/A   Overcast
3:53 PM 32.0 °F 24.2 °F 12.0 °F 44% 29.74 in 10.0 mi West 9.2 mph 18.4 mph N/A   Overcast
4:53 PM 32.0 °F 24.8 °F 8.1 °F 37% 29.76 in 10.0 mi West 8.1 mph 19.6 mph N/A   Overcast
5:53 PM 30.0 °F 25.2 °F 9.0 °F 41% 29.78 in 10.0 mi Variable 4.6 mph 16.1 mph N/A   Mostly Cloudy
6:53 PM 30.0 °F 21.7 °F 7.0 °F 38% 29.81 in 10.0 mi WNW 9.2 mph 26.5 mph N/A   Partly Cloudy
7:53 PM 28.0 °F 20.8 °F 6.1 °F 39% 29.82 in 10.0 mi WNW 6.9 mph 17.3 mph N/A   Clear
8:53 PM 28.0 °F 18.1 °F 6.1 °F 39% 29.83 in 10.0 mi WNW 11.5 mph 19.6 mph N/A   Clear
9:53 PM 27.0 °F 18.0 °F 6.1 °F 41% 29.85 in 10.0 mi WNW 9.2 mph 17.3 mph N/A   Clear
10:53 PM 26.1 °F 18.4 °F 8.1 °F 47% 29.85 in 10.0 mi Variable 6.9 mph 16.1 mph N/A   Clear
11:53 PM 25.0 °F 17.1 °F 9.0 °F 51% 29.87 in 10.0 mi Variable 6.9 mph - N/A   Clear